sat.trackr.live / text

‹ back to catalog

IRIDIUM 147

NORAD 43480 · 2018-047E

PAYLOAD ACTIVE UNKNOWN

§ Identity

Operator
Country
US
Launch date
2018-05-22
Launch site
AFWTR
Launch vehicle
Mass (kg)
RCS (m²)

Purposes: comms

External: N2YO · Heavens-Above · Gunter

§ Orbital elements

Epoch: 2026-05-25T03:42:14.231232Z

Period
100.40 min
Inclination
86.3946°
Eccentricity
0.0002190
Mean motion
14.34217851 rev/d
Perigee alt
776.1 km
Apogee alt
779.2 km
Semi-major
7,155.8 km
B*
1.1560e-5
RAAN
97.9668°
Arg perigee
84.2025°
Mean anomaly
275.9420°
Rev number
41,918

§ Raw data

IRIDIUM 1471 43480U 18047E   26145.15433138  .00000052  00000+0  11560-4 0  99982 43480  86.3946  97.9668 0002190  84.2025 275.9420 14.34217851419183

JSON: /api/v1/satellites/43480 · /tle

For live sub-satellite position, see the globe view (requires WebGL).

§ Visibility from observer

Set your observer location to see the next 7 days of passes ≥ 10°. The values pass through the URL so the page stays shareable.

No JS? Fill the form by hand. The geolocation button needs JavaScript.